049  
SXUS52 KCHS 140711  
OSOCHS  
 
MARINE OBSERVATIONS  
NATIONAL WEATHER SERVICE CHARLESTON SC  
300 AM EDT WED APR 14 2021  
   
..DOWNTOWN CHARLESTON AND HARBOR
 
 
 
CITY SKY/WX TMP DP RH WIND PRES REMARKS  
WATERFRONT PRK N/A 66 61 84 VRB2 29.95S  
   
..LAKE MOULTRIE
 
 
 
CITY SKY/WX TMP DP RH WIND PRES REMARKS  
PINOPOLIS N/A 61 57 88 VRB2 30.00S  
   
..LAKE AND SUPPLEMENTAL COASTAL OBSERVATIONS
 
 
 
STATION/POSITION TIME TEMP WIND PRES WAVE SWELL  
AIR SEA DIR/SP/G HT/PER HT/PER/DIR  
(UTC) (F) (DEG/KT/KT) (MB) (FT/S) (FT/S/D)  
CHRLSTN HARBOR 0624 64 67 210/ 5/ 6 1019.2  
FORT PULASKI 0624 64 66 220/ 2/ 3 1019.7  
SAPELO ISLAND 0600 63 190/ 5 1020.0  
WINYAH BAY NOT AVBL  
LAKE MURRAY 0620 68 190/ 6/ 8 N/A  
ACE BASIN NERRS NOT AVBL  
 
   
..C-MAN AND BUOY OBSERVATIONS
 
 
 
STATION/POSITION TIME TEMP WIND PRES WAVE SWELL  
AIR SEA DIR/SP/G HT/PER HT/PER/DIR  
(UTC) (F) (DEG/KT/KT) (MB) (FT/S) (FT/S/D)  
BUOY 41004 NOT AVBL  
BUOY 41008 0650 66 66 220/ 4/ 6 1018.9F 2/ 6 2/ 90/ 6  
FOLLY BEACH CMAN 0700 64 230/ 4/ 5 1019.5F  
PRITCHARDS ISLAN NOT AVBL  
CAPERS NS BUOY 0653 65 66 230/ 2/ 4 1018.4F  
FRIPP NS BUOY 0608 66 66 180/ 4/ 6 1018.5F  
5E ST. MARYS GA 0630 66 66 N/A 2/ 9  
 
 
STATION/POSITION TIME TEMP WIND PRES WAVE SWELL  
AIR SEA DIR/SP/G HT/PER HT/PER/DIR  
(UTC) (F) (DEG/KT/KT) (MB) (FT/S) (FT/S/D)  
FRYING PAN BUOY 0650 65 66 110/ 2/ 4 1018.4F 4/ 8 3/ 90/ 8  
BUOY 41025 NOT AVBL  
CAPE LOOKOUT NC 0700 57 10/ 6/ 6 1020.0F  
BUOY 41002 NOT AVBL  
BUOY 41010 0650 71 60/ 12/ 16 1019.3F 5/ 8 5/ 20/ 8  
ST AUGUSTINE FL 0700 68 67 180/ 4/ 6 1019.3F  
 

 
 
 
CLICK HERE TO GO TO PREVIOUS BULLETINS.

The Nexlab SC Page
The Nexlab GA Page Main Text Page